Year,Month,Day,Hour,Minute,Value (Times are PST for temperature in C)
2009,07,29,00,00,23.70
2009,07,29,00,01,23.70
2009,07,29,00,02,23.70
2009,07,29,00,03,23.70
2009,07,29,00,04,23.70
2009,07,29,00,05,23.70
2009,07,29,00,06,23.70
2009,07,29,00,07,23.60
2009,07,29,00,08,23.60
2009,07,29,00,09,23.60
2009,07,29,00,10,23.60
2009,07,29,00,11,23.60
2009,07,29,00,12,23.50
2009,07,29,00,13,23.40
2009,07,29,00,14,23.40
2009,07,29,00,15,23.40
2009,07,29,00,16,23.40
2009,07,29,00,17,23.40
2009,07,29,00,18,23.40
2009,07,29,00,19,23.30
2009,07,29,00,20,23.30
2009,07,29,00,21,23.30
2009,07,29,00,22,23.30
2009,07,29,00,23,23.20
2009,07,29,00,24,23.20
2009,07,29,00,25,23.10
2009,07,29,00,26,23.10
2009,07,29,00,27,23.10
2009,07,29,00,28,22.90
2009,07,29,00,29,22.90
2009,07,29,00,30,22.90
2009,07,29,00,31,22.90
2009,07,29,00,32,22.90
2009,07,29,00,33,22.90
2009,07,29,00,34,22.90
2009,07,29,00,35,22.90
2009,07,29,00,36,22.80
2009,07,29,00,37,22.80
2009,07,29,00,38,22.80
2009,07,29,00,39,22.80
2009,07,29,00,40,22.80
2009,07,29,00,41,22.80
2009,07,29,00,42,22.80
2009,07,29,00,43,22.80
2009,07,29,00,44,22.70
2009,07,29,00,45,22.70
2009,07,29,00,46,22.70
2009,07,29,00,47,22.70
2009,07,29,00,48,22.70
2009,07,29,00,49,22.70
2009,07,29,00,50,22.70
2009,07,29,00,51,22.70
2009,07,29,00,52,22.70
2009,07,29,00,53,22.70
2009,07,29,00,54,22.70
2009,07,29,00,55,22.70
2009,07,29,00,56,22.70
2009,07,29,00,57,22.60
2009,07,29,00,58,22.60
2009,07,29,00,59,22.60
2009,07,29,01,00,22.60
2009,07,29,01,01,22.60
2009,07,29,01,02,22.60
2009,07,29,01,03,22.60
2009,07,29,01,04,22.60
2009,07,29,01,05,22.50
2009,07,29,01,06,22.50
2009,07,29,01,07,22.50
2009,07,29,01,08,22.40
2009,07,29,01,09,22.40
2009,07,29,01,10,22.40
2009,07,29,01,11,22.40
2009,07,29,01,12,22.30
2009,07,29,01,13,22.30
2009,07,29,01,14,22.30
2009,07,29,01,15,22.20
2009,07,29,01,16,22.20
2009,07,29,01,17,22.20
2009,07,29,01,18,22.10
2009,07,29,01,19,22.10
2009,07,29,01,20,22.10
2009,07,29,01,21,22.10
2009,07,29,01,22,22.10
2009,07,29,01,23,22.10
2009,07,29,01,24,22.10
2009,07,29,01,25,22.10
2009,07,29,01,26,22.10
2009,07,29,01,27,22.10
2009,07,29,01,28,22.10
2009,07,29,01,29,22.20
2009,07,29,01,30,22.20
2009,07,29,01,31,22.20
2009,07,29,01,32,22.20
2009,07,29,01,33,22.20
2009,07,29,01,34,22.20
2009,07,29,01,35,22.20
2009,07,29,01,36,22.20
2009,07,29,01,37,22.20
2009,07,29,01,38,22.20
2009,07,29,01,39,22.20
2009,07,29,01,40,22.20
2009,07,29,01,41,22.20
2009,07,29,01,42,22.20
2009,07,29,01,43,22.20
2009,07,29,01,44,22.20
2009,07,29,01,45,22.10
2009,07,29,01,46,22.10
2009,07,29,01,47,22.10
2009,07,29,01,48,22.10
2009,07,29,01,49,22.10
2009,07,29,01,50,22.10
2009,07,29,01,51,22.10
2009,07,29,01,52,22.10
2009,07,29,01,53,22.10
2009,07,29,01,54,22.10
2009,07,29,01,55,22.10
2009,07,29,01,56,22.10
2009,07,29,01,57,22.10
2009,07,29,01,58,22.10
2009,07,29,01,59,22.10
2009,07,29,02,00,22.00
2009,07,29,02,01,22.00
2009,07,29,02,02,22.00
2009,07,29,02,03,22.00
2009,07,29,02,04,21.90
2009,07,29,02,05,21.90
2009,07,29,02,06,21.90
2009,07,29,02,07,21.80
2009,07,29,02,08,21.80
2009,07,29,02,09,21.80
2009,07,29,02,10,21.80
2009,07,29,02,11,21.80
2009,07,29,02,12,21.70
2009,07,29,02,13,21.70
2009,07,29,02,14,21.70
2009,07,29,02,15,21.70
2009,07,29,02,16,21.70
2009,07,29,02,17,21.70
2009,07,29,02,18,21.70
2009,07,29,02,19,21.70
2009,07,29,02,20,21.70
2009,07,29,02,21,21.60
2009,07,29,02,22,21.60
2009,07,29,02,23,21.60
2009,07,29,02,24,21.60
2009,07,29,02,25,21.60
2009,07,29,02,26,21.60
2009,07,29,02,27,21.60
2009,07,29,02,28,21.60
2009,07,29,02,29,21.60
2009,07,29,02,30,21.50
2009,07,29,02,31,21.40
2009,07,29,02,32,21.40
2009,07,29,02,33,21.40
2009,07,29,02,34,21.40
2009,07,29,02,35,21.40
2009,07,29,02,36,21.40
2009,07,29,02,37,21.40
2009,07,29,02,38,21.40
2009,07,29,02,39,21.40
2009,07,29,02,40,21.40
2009,07,29,02,41,21.40
2009,07,29,02,42,21.40
2009,07,29,02,43,21.40
2009,07,29,02,44,21.30
2009,07,29,02,45,21.30
2009,07,29,02,46,21.30
2009,07,29,02,47,21.30
2009,07,29,02,48,21.30
2009,07,29,02,49,21.20
2009,07,29,02,50,21.20
2009,07,29,02,51,21.20
2009,07,29,02,52,21.10
2009,07,29,02,53,21.10
2009,07,29,02,54,21.10
2009,07,29,02,55,21.10
2009,07,29,02,56,21.10
2009,07,29,02,57,21.10
2009,07,29,02,58,21.10
2009,07,29,02,59,21.10
2009,07,29,03,00,21.10
2009,07,29,03,01,21.10
2009,07,29,03,02,21.20
2009,07,29,03,03,21.20
2009,07,29,03,04,21.20
2009,07,29,03,05,21.20
2009,07,29,03,06,21.20
2009,07,29,03,07,21.20
2009,07,29,03,08,21.20
2009,07,29,03,09,21.20
2009,07,29,03,10,21.20
2009,07,29,03,11,21.20
2009,07,29,03,12,21.20
2009,07,29,03,13,21.20
2009,07,29,03,14,21.20
2009,07,29,03,15,21.20
2009,07,29,03,16,21.20
2009,07,29,03,17,21.20
2009,07,29,03,18,21.20
2009,07,29,03,19,21.20
2009,07,29,03,20,21.20
2009,07,29,03,21,21.20
2009,07,29,03,22,21.20
2009,07,29,03,23,21.10
2009,07,29,03,24,21.10
2009,07,29,03,25,21.00
2009,07,29,03,26,21.00
2009,07,29,03,27,20.90
2009,07,29,03,28,20.90
2009,07,29,03,29,20.90
2009,07,29,03,30,20.80
2009,07,29,03,31,20.80
2009,07,29,03,32,20.80
2009,07,29,03,33,20.80
2009,07,29,03,34,20.80
2009,07,29,03,35,20.80
2009,07,29,03,36,20.80
2009,07,29,03,37,20.80
2009,07,29,03,38,20.70
2009,07,29,03,39,20.70
2009,07,29,03,40,20.70
2009,07,29,03,41,20.70
2009,07,29,03,42,20.70
2009,07,29,03,43,20.60
2009,07,29,03,44,20.60
2009,07,29,03,45,20.60
2009,07,29,03,46,20.60
2009,07,29,03,47,20.60
2009,07,29,03,48,20.50
2009,07,29,03,49,20.50
2009,07,29,03,50,20.50
2009,07,29,03,51,20.50
2009,07,29,03,52,20.50
2009,07,29,03,53,20.50
2009,07,29,03,54,20.50
2009,07,29,03,55,20.40
2009,07,29,03,56,20.40
2009,07,29,03,57,20.40
2009,07,29,03,58,20.40
2009,07,29,03,59,20.30
2009,07,29,04,00,20.30
2009,07,29,04,01,20.20
2009,07,29,04,02,20.20
2009,07,29,04,03,20.10
2009,07,29,04,04,19.90
2009,07,29,04,05,19.90
2009,07,29,04,06,19.90
2009,07,29,04,07,19.90
2009,07,29,04,08,19.90
2009,07,29,04,09,19.80
2009,07,29,04,10,19.80
2009,07,29,04,11,19.80
2009,07,29,04,12,19.80
2009,07,29,04,13,19.70
2009,07,29,04,14,19.70
2009,07,29,04,15,19.70
2009,07,29,04,16,19.70
2009,07,29,04,17,19.60
2009,07,29,04,18,19.60
2009,07,29,04,19,19.60
2009,07,29,04,20,19.60
2009,07,29,04,21,19.60
2009,07,29,04,22,19.60
2009,07,29,04,23,19.60
2009,07,29,04,24,19.70
2009,07,29,04,25,19.70
2009,07,29,04,26,19.70
2009,07,29,04,27,19.70
2009,07,29,04,28,19.70
2009,07,29,04,29,19.70
2009,07,29,04,30,19.60
2009,07,29,04,31,19.60
2009,07,29,04,32,19.70
2009,07,29,04,33,19.70
2009,07,29,04,34,19.70
2009,07,29,04,35,19.80
2009,07,29,04,36,19.80
2009,07,29,04,37,19.80
2009,07,29,04,38,19.80
2009,07,29,04,39,19.80
2009,07,29,04,40,19.80
2009,07,29,04,41,19.70
2009,07,29,04,42,19.70
2009,07,29,04,43,19.70
2009,07,29,04,44,19.70
2009,07,29,04,45,19.70
2009,07,29,04,46,19.70
2009,07,29,04,47,19.70
2009,07,29,04,48,19.70
2009,07,29,04,49,19.70
2009,07,29,04,50,19.70
2009,07,29,04,51,19.70
2009,07,29,04,52,19.70
2009,07,29,04,53,19.60
2009,07,29,04,54,19.60
2009,07,29,04,55,19.60
2009,07,29,04,56,19.60
2009,07,29,04,57,19.60
2009,07,29,04,58,19.60
2009,07,29,04,59,19.60
2009,07,29,05,00,19.60
2009,07,29,05,01,19.60
2009,07,29,05,02,19.60
2009,07,29,05,03,19.70
2009,07,29,05,04,19.70
2009,07,29,05,05,19.70
2009,07,29,05,06,19.70
2009,07,29,05,07,19.70
2009,07,29,05,08,19.70
2009,07,29,05,09,19.70
2009,07,29,05,10,19.70
2009,07,29,05,11,19.70
2009,07,29,05,12,19.60
2009,07,29,05,13,19.60
2009,07,29,05,14,19.60
2009,07,29,05,15,19.60
2009,07,29,05,16,19.50
2009,07,29,05,17,19.50
2009,07,29,05,18,19.50
2009,07,29,05,19,19.40
2009,07,29,05,20,19.40
2009,07,29,05,21,19.40
2009,07,29,05,22,19.40
2009,07,29,05,23,19.40
2009,07,29,05,24,19.40
2009,07,29,05,25,19.40
2009,07,29,05,26,19.40
2009,07,29,05,27,19.40
2009,07,29,05,28,19.40
2009,07,29,05,29,19.40
2009,07,29,05,30,19.40
2009,07,29,05,31,19.40
2009,07,29,05,32,19.40
2009,07,29,05,33,19.50
2009,07,29,05,34,19.50
2009,07,29,05,35,19.50
2009,07,29,05,36,19.50
2009,07,29,05,37,19.50
2009,07,29,05,38,19.50
2009,07,29,05,39,19.50
2009,07,29,05,40,19.50
2009,07,29,05,41,19.50
2009,07,29,05,42,19.50
2009,07,29,05,43,19.50
2009,07,29,05,44,19.40
2009,07,29,05,45,19.40
2009,07,29,05,46,19.40
2009,07,29,05,47,19.40
2009,07,29,05,48,19.40
2009,07,29,05,49,19.40
2009,07,29,05,50,19.40
2009,07,29,05,51,19.40
2009,07,29,05,52,19.40
2009,07,29,05,53,19.40
2009,07,29,05,54,19.40
2009,07,29,05,55,19.40
2009,07,29,05,56,19.40
2009,07,29,05,57,19.40
2009,07,29,05,58,19.30
2009,07,29,05,59,19.30
2009,07,29,06,00,19.30
2009,07,29,06,01,19.30
2009,07,29,06,02,19.30
2009,07,29,06,03,19.30
2009,07,29,06,04,19.30
2009,07,29,06,05,19.30
2009,07,29,06,06,19.20
2009,07,29,06,07,19.20
2009,07,29,06,08,19.20
2009,07,29,06,09,19.20
2009,07,29,06,10,19.20
2009,07,29,06,11,19.20
2009,07,29,06,12,19.30
2009,07,29,06,13,19.30
2009,07,29,06,14,19.30
2009,07,29,06,15,19.30
2009,07,29,06,16,19.30
2009,07,29,06,17,19.30
2009,07,29,06,18,19.30
2009,07,29,06,19,19.40
2009,07,29,06,20,19.40
2009,07,29,06,21,19.50
2009,07,29,06,22,19.50
2009,07,29,06,23,19.60
2009,07,29,06,24,19.60
2009,07,29,06,25,19.70
2009,07,29,06,26,19.70
2009,07,29,06,27,19.70
2009,07,29,06,28,19.70
2009,07,29,06,29,19.70
2009,07,29,06,30,19.70
2009,07,29,06,31,19.80
2009,07,29,06,32,19.80
2009,07,29,06,33,19.80
2009,07,29,06,34,19.80
2009,07,29,06,35,19.80
2009,07,29,06,36,19.90
2009,07,29,06,37,19.90
2009,07,29,06,38,19.90
2009,07,29,06,39,19.90
2009,07,29,06,40,19.90
2009,07,29,06,41,19.90
2009,07,29,06,42,19.90
2009,07,29,06,43,19.90
2009,07,29,06,44,19.90
2009,07,29,06,45,19.90
2009,07,29,06,46,20.10
2009,07,29,06,47,20.10
2009,07,29,06,48,20.20
2009,07,29,06,49,20.20
2009,07,29,06,50,20.20
2009,07,29,06,51,20.20
2009,07,29,06,52,20.20
2009,07,29,06,53,20.20
2009,07,29,06,54,20.20
2009,07,29,06,55,20.30
2009,07,29,06,56,20.30
2009,07,29,06,57,20.30
2009,07,29,06,58,20.40
2009,07,29,06,59,20.40
2009,07,29,07,00,20.50
2009,07,29,07,01,20.50
2009,07,29,07,02,20.60
2009,07,29,07,03,20.60
2009,07,29,07,04,20.60
2009,07,29,07,05,20.70
2009,07,29,07,06,20.70
2009,07,29,07,07,20.70
2009,07,29,07,08,20.70
2009,07,29,07,09,20.70
2009,07,29,07,10,20.80
2009,07,29,07,11,20.80
2009,07,29,07,12,20.80
2009,07,29,07,13,20.90
2009,07,29,07,14,20.90
2009,07,29,07,15,21.00
2009,07,29,07,16,21.00
2009,07,29,07,17,21.00
2009,07,29,07,18,21.10
2009,07,29,07,19,21.20
2009,07,29,07,20,21.20
2009,07,29,07,21,21.30
2009,07,29,07,22,21.30
2009,07,29,07,23,21.40
2009,07,29,07,24,21.50
2009,07,29,07,25,21.60
2009,07,29,07,26,21.60
2009,07,29,07,27,21.70
2009,07,29,07,28,21.70
2009,07,29,07,29,21.70
2009,07,29,07,30,21.70
2009,07,29,07,31,21.70
2009,07,29,07,32,21.70
2009,07,29,07,33,21.70
2009,07,29,07,34,21.70
2009,07,29,07,35,21.70
2009,07,29,07,36,21.70
2009,07,29,07,37,21.70
2009,07,29,07,38,21.60
2009,07,29,07,39,21.40
2009,07,29,07,40,21.30
2009,07,29,07,41,21.00
2009,07,29,07,42,20.80
2009,07,29,07,43,20.60
2009,07,29,07,44,20.50
2009,07,29,07,45,20.30
2009,07,29,07,46,20.20
2009,07,29,07,47,20.10
2009,07,29,07,48,19.90
2009,07,29,07,49,19.90
2009,07,29,07,50,19.90
2009,07,29,07,51,19.80
2009,07,29,07,52,19.80
2009,07,29,07,53,19.70
2009,07,29,07,54,19.70
2009,07,29,07,55,19.60
2009,07,29,07,56,19.60
2009,07,29,07,57,19.50
2009,07,29,07,58,19.50
2009,07,29,07,59,19.60
2009,07,29,08,00,19.60
2009,07,29,08,01,19.60
2009,07,29,08,02,19.70
2009,07,29,08,03,19.70
2009,07,29,08,04,19.80
2009,07,29,08,05,19.80
2009,07,29,08,06,19.80
2009,07,29,08,07,19.90
2009,07,29,08,08,19.90
2009,07,29,08,09,19.90
2009,07,29,08,10,20.00
2009,07,29,08,11,20.10
2009,07,29,08,12,20.20
2009,07,29,08,13,20.20
2009,07,29,08,14,20.30
2009,07,29,08,15,20.40
2009,07,29,08,16,20.50
2009,07,29,08,17,20.60
2009,07,29,08,18,20.70
2009,07,29,08,19,20.80
2009,07,29,08,20,20.90
2009,07,29,08,21,21.00
2009,07,29,08,22,21.10
2009,07,29,08,23,21.30
2009,07,29,08,24,21.40
2009,07,29,08,25,21.50
2009,07,29,08,26,21.60
2009,07,29,08,27,21.80
2009,07,29,08,28,21.90
2009,07,29,08,29,22.00
2009,07,29,08,30,22.10
2009,07,29,08,31,22.20
2009,07,29,08,32,22.30
2009,07,29,08,33,22.40
2009,07,29,08,34,22.50
2009,07,29,08,35,22.60
2009,07,29,08,36,22.70
2009,07,29,08,37,22.70
2009,07,29,08,38,22.80
2009,07,29,08,39,22.80
2009,07,29,08,40,22.80
2009,07,29,08,41,22.90
2009,07,29,08,42,22.90
2009,07,29,08,43,22.90
2009,07,29,08,44,22.90
2009,07,29,08,45,22.90
2009,07,29,08,46,22.90
2009,07,29,08,47,22.90
2009,07,29,08,48,22.90
2009,07,29,08,49,22.90
2009,07,29,08,50,22.80
2009,07,29,08,51,22.80
2009,07,29,08,52,22.80
2009,07,29,08,53,22.80
2009,07,29,08,54,22.80
2009,07,29,08,55,22.70
2009,07,29,08,56,22.70
2009,07,29,08,57,22.60
2009,07,29,08,58,22.60
2009,07,29,08,59,22.60
2009,07,29,09,00,22.50
2009,07,29,09,01,22.50
2009,07,29,09,02,22.40
2009,07,29,09,03,22.30
2009,07,29,09,04,22.20
2009,07,29,09,05,22.20
2009,07,29,09,06,22.10
2009,07,29,09,07,22.00
2009,07,29,09,08,22.00
2009,07,29,09,09,22.00
2009,07,29,09,10,21.90
2009,07,29,09,11,21.90
2009,07,29,09,12,21.80
2009,07,29,09,13,21.90
2009,07,29,09,14,21.90
2009,07,29,09,15,21.90
2009,07,29,09,16,21.90
2009,07,29,09,17,21.90
2009,07,29,09,18,21.90
2009,07,29,09,19,22.00
2009,07,29,09,20,22.00
2009,07,29,09,21,22.00
2009,07,29,09,22,21.90
2009,07,29,09,23,21.90
2009,07,29,09,24,21.90
2009,07,29,09,25,21.90
2009,07,29,09,26,21.90
2009,07,29,09,27,22.00
2009,07,29,09,28,22.00
2009,07,29,09,29,22.10
2009,07,29,09,30,22.20
2009,07,29,09,31,22.30
2009,07,29,09,32,22.40
2009,07,29,09,33,22.60
2009,07,29,09,34,22.70
2009,07,29,09,35,22.80
2009,07,29,09,36,22.90
2009,07,29,09,37,23.00
2009,07,29,09,38,23.10
2009,07,29,09,39,23.20
2009,07,29,09,40,23.30
2009,07,29,09,41,23.50
2009,07,29,09,42,23.70
2009,07,29,09,43,24.10
2009,07,29,09,44,24.50
2009,07,29,09,45,24.90
2009,07,29,09,46,25.50
2009,07,29,09,47,26.00
2009,07,29,09,48,26.40
2009,07,29,09,49,26.70
2009,07,29,09,50,27.00
2009,07,29,09,51,27.20
2009,07,29,09,52,27.30
2009,07,29,09,53,27.30
2009,07,29,09,54,27.50
2009,07,29,09,55,27.60
2009,07,29,09,56,27.60
2009,07,29,09,57,27.70
2009,07,29,09,58,27.70
2009,07,29,09,59,27.70
2009,07,29,10,00,27.80
2009,07,29,10,01,27.80
2009,07,29,10,02,27.90
2009,07,29,10,03,28.00
2009,07,29,10,04,28.10
2009,07,29,10,05,28.10
2009,07,29,10,06,28.20
2009,07,29,10,07,28.30
2009,07,29,10,08,28.40
2009,07,29,10,09,28.50
2009,07,29,10,10,28.70
2009,07,29,10,11,28.70
2009,07,29,10,12,28.70
2009,07,29,10,13,28.70
2009,07,29,10,14,28.80
2009,07,29,10,15,28.90
2009,07,29,10,16,28.90
2009,07,29,10,17,29.00
2009,07,29,10,18,29.10
2009,07,29,10,19,29.10
2009,07,29,10,20,29.20
2009,07,29,10,21,29.20
2009,07,29,10,22,29.20
2009,07,29,10,23,29.20
2009,07,29,10,24,29.20
2009,07,29,10,25,29.20
2009,07,29,10,26,29.20
2009,07,29,10,27,29.30
2009,07,29,10,28,29.40
2009,07,29,10,29,29.40
2009,07,29,10,30,29.30
2009,07,29,10,31,29.30
2009,07,29,10,32,29.40
2009,07,29,10,33,29.40
2009,07,29,10,34,29.50
2009,07,29,10,35,29.50
2009,07,29,10,36,29.50
2009,07,29,10,37,29.50
2009,07,29,10,38,29.60
2009,07,29,10,39,29.60
2009,07,29,10,40,29.70
2009,07,29,10,41,29.70
2009,07,29,10,42,29.70
2009,07,29,10,43,29.70
2009,07,29,10,44,29.70
2009,07,29,10,45,29.70
2009,07,29,10,46,29.80
2009,07,29,10,47,29.80
2009,07,29,10,48,29.80
2009,07,29,10,49,29.90
2009,07,29,10,50,29.80
2009,07,29,10,51,29.80
2009,07,29,10,52,29.80
2009,07,29,10,53,29.80
2009,07,29,10,54,29.80
2009,07,29,10,55,29.80
2009,07,29,10,56,29.80
2009,07,29,10,57,29.90
2009,07,29,10,58,29.90
2009,07,29,10,59,29.90
2009,07,29,11,00,29.80
2009,07,29,11,01,29.80
2009,07,29,11,02,29.80
2009,07,29,11,03,29.80
2009,07,29,11,04,29.80
2009,07,29,11,05,29.80
2009,07,29,11,06,29.70
2009,07,29,11,07,29.70
2009,07,29,11,08,29.60
2009,07,29,11,09,29.60
2009,07,29,11,10,29.50
2009,07,29,11,11,29.50
2009,07,29,11,12,29.50
2009,07,29,11,13,29.50
2009,07,29,11,14,29.50
2009,07,29,11,15,29.60
2009,07,29,11,16,29.70
2009,07,29,11,17,29.80
2009,07,29,11,18,29.90
2009,07,29,11,19,29.90
2009,07,29,11,20,29.90
2009,07,29,11,21,29.90
2009,07,29,11,22,29.90
2009,07,29,11,23,29.90
2009,07,29,11,24,30.10
2009,07,29,11,25,30.10
2009,07,29,11,26,30.20
2009,07,29,11,27,30.30
2009,07,29,11,28,30.40
2009,07,29,11,29,30.40
2009,07,29,11,30,30.40
2009,07,29,11,31,30.40
2009,07,29,11,32,30.40
2009,07,29,11,33,30.40
2009,07,29,11,34,30.40
2009,07,29,11,35,30.60
2009,07,29,11,36,30.60
2009,07,29,11,37,30.60
2009,07,29,11,38,30.60
2009,07,29,11,39,30.70
2009,07,29,11,40,30.70
2009,07,29,11,41,30.80
2009,07,29,11,42,30.80
2009,07,29,11,43,30.70
2009,07,29,11,44,30.70
2009,07,29,11,45,30.70
2009,07,29,11,46,30.70
2009,07,29,11,47,30.70
2009,07,29,11,48,30.60
2009,07,29,11,49,30.60
2009,07,29,11,50,30.60
2009,07,29,11,51,30.70
2009,07,29,11,52,30.80
2009,07,29,11,53,30.80
2009,07,29,11,54,30.80
2009,07,29,11,55,30.90
2009,07,29,11,56,31.00
2009,07,29,11,57,31.10
2009,07,29,11,58,31.20
2009,07,29,11,59,31.30
2009,07,29,12,00,31.30
2009,07,29,12,01,31.30
2009,07,29,12,02,31.30
2009,07,29,12,03,31.30
2009,07,29,12,04,31.30
2009,07,29,12,05,31.30
2009,07,29,12,06,31.30
2009,07,29,12,07,31.20
2009,07,29,12,08,31.20
2009,07,29,12,09,31.20
2009,07,29,12,10,31.10
2009,07,29,12,11,31.10
2009,07,29,12,12,31.10
2009,07,29,12,13,31.20
2009,07,29,12,14,31.20
2009,07,29,12,15,31.20
2009,07,29,12,16,31.20
2009,07,29,12,17,31.20
2009,07,29,12,18,31.30
2009,07,29,12,19,31.30
2009,07,29,12,20,31.40
2009,07,29,12,21,31.40
2009,07,29,12,22,31.40
2009,07,29,12,23,31.40
2009,07,29,12,24,31.40
2009,07,29,12,25,31.30
2009,07,29,12,26,31.20
2009,07,29,12,27,31.20
2009,07,29,12,28,31.20
2009,07,29,12,29,31.30
2009,07,29,12,30,31.30
2009,07,29,12,31,31.30
2009,07,29,12,32,31.40
2009,07,29,12,33,31.40
2009,07,29,12,34,31.40
2009,07,29,12,35,31.30
2009,07,29,12,36,31.30
2009,07,29,12,37,31.30
2009,07,29,12,38,31.30
2009,07,29,12,39,31.40
2009,07,29,12,40,31.60
2009,07,29,12,41,31.80
2009,07,29,12,42,31.90
2009,07,29,12,43,31.90
2009,07,29,12,44,31.90
2009,07,29,12,45,31.80
2009,07,29,12,46,31.60
2009,07,29,12,47,31.60
2009,07,29,12,48,31.60
2009,07,29,12,49,31.70
2009,07,29,12,50,31.70
2009,07,29,12,51,31.80
2009,07,29,12,52,31.80
2009,07,29,12,53,31.70
2009,07,29,12,54,31.70
2009,07,29,12,55,31.70
2009,07,29,12,56,31.70
2009,07,29,12,57,31.60
2009,07,29,12,58,31.60
2009,07,29,12,59,31.60
2009,07,29,13,00,31.60
2009,07,29,13,01,31.60
2009,07,29,13,02,31.60
2009,07,29,13,03,31.60
2009,07,29,13,04,31.70
2009,07,29,13,05,31.80
2009,07,29,13,06,31.80
2009,07,29,13,07,31.90
2009,07,29,13,08,31.90
2009,07,29,13,09,31.90
2009,07,29,13,10,31.90
2009,07,29,13,11,31.90
2009,07,29,13,12,31.90
2009,07,29,13,13,31.80
2009,07,29,13,14,31.90
2009,07,29,13,15,31.90
2009,07,29,13,16,32.00
2009,07,29,13,17,32.10
2009,07,29,13,18,32.20
2009,07,29,13,19,32.30
2009,07,29,13,20,32.40
2009,07,29,13,21,32.40
2009,07,29,13,22,32.50
2009,07,29,13,23,32.50
2009,07,29,13,24,32.60
2009,07,29,13,25,32.60
2009,07,29,13,26,32.60
2009,07,29,13,27,32.60
2009,07,29,13,28,32.60
2009,07,29,13,29,32.60
2009,07,29,13,30,32.60
2009,07,29,13,31,32.50
2009,07,29,13,32,32.50
2009,07,29,13,33,32.50
2009,07,29,13,34,32.50
2009,07,29,13,35,32.60
2009,07,29,13,36,32.70
2009,07,29,13,37,32.80
2009,07,29,13,38,32.80
2009,07,29,13,39,32.90
2009,07,29,13,40,32.90
2009,07,29,13,41,32.90
2009,07,29,13,42,33.00
2009,07,29,13,43,33.10
2009,07,29,13,44,33.10
2009,07,29,13,45,33.10
2009,07,29,13,46,33.20
2009,07,29,13,47,33.20
2009,07,29,13,48,33.20
2009,07,29,13,49,33.20
2009,07,29,13,50,33.20
2009,07,29,13,51,33.20
2009,07,29,13,52,33.30
2009,07,29,13,53,33.50
2009,07,29,13,54,33.50
2009,07,29,13,55,33.60
2009,07,29,13,56,33.70
2009,07,29,13,57,33.70
2009,07,29,13,58,33.80
2009,07,29,13,59,33.80
2009,07,29,14,00,33.90
2009,07,29,14,01,34.00
2009,07,29,14,02,34.00
2009,07,29,14,03,34.00
2009,07,29,14,04,34.10
2009,07,29,14,05,34.20
2009,07,29,14,06,34.30
2009,07,29,14,07,34.40
2009,07,29,14,08,34.50
2009,07,29,14,09,34.60
2009,07,29,14,10,34.60
2009,07,29,14,11,34.60
2009,07,29,14,12,34.60
2009,07,29,14,13,34.60
2009,07,29,14,14,34.60
2009,07,29,14,15,34.60
2009,07,29,14,16,34.40
2009,07,29,14,17,34.30
2009,07,29,14,18,34.20
2009,07,29,14,19,34.30
2009,07,29,14,20,34.30
2009,07,29,14,21,34.40
2009,07,29,14,22,34.40
2009,07,29,14,23,34.40
2009,07,29,14,24,34.60
2009,07,29,14,25,34.70
2009,07,29,14,26,34.70
2009,07,29,14,27,34.70
2009,07,29,14,28,34.80
2009,07,29,14,29,34.80
2009,07,29,14,30,34.90
2009,07,29,14,31,34.90
2009,07,29,14,32,34.90
2009,07,29,14,33,34.90
2009,07,29,14,34,34.90
2009,07,29,14,35,34.90
2009,07,29,14,36,35.00
2009,07,29,14,37,35.10
2009,07,29,14,38,35.10
2009,07,29,14,39,35.10
2009,07,29,14,40,35.10
2009,07,29,14,41,35.10
2009,07,29,14,42,35.10
2009,07,29,14,43,35.10
2009,07,29,14,44,35.10
2009,07,29,14,45,35.10
2009,07,29,14,46,35.20
2009,07,29,14,47,35.20
2009,07,29,14,48,35.20
2009,07,29,14,49,35.20
2009,07,29,14,50,35.20
2009,07,29,14,51,35.20
2009,07,29,14,52,35.30
2009,07,29,14,53,35.30
2009,07,29,14,54,35.50
2009,07,29,14,55,35.50
2009,07,29,14,56,35.50
2009,07,29,14,57,35.50
2009,07,29,14,58,35.50
2009,07,29,14,59,35.50
2009,07,29,15,00,35.60
2009,07,29,15,01,35.60
2009,07,29,15,02,35.70
2009,07,29,15,03,35.70
2009,07,29,15,04,35.70
2009,07,29,15,05,35.70
2009,07,29,15,06,35.60
2009,07,29,15,07,35.60
2009,07,29,15,08,35.60
2009,07,29,15,09,35.60
2009,07,29,15,10,35.60
2009,07,29,15,11,35.60
2009,07,29,15,12,35.60
2009,07,29,15,13,35.60
2009,07,29,15,14,35.60
2009,07,29,15,15,35.60
2009,07,29,15,16,35.60
2009,07,29,15,17,35.70
2009,07,29,15,18,35.60
2009,07,29,15,19,35.60
2009,07,29,15,20,35.60
2009,07,29,15,21,35.50
2009,07,29,15,22,35.50
2009,07,29,15,23,35.50
2009,07,29,15,24,35.60
2009,07,29,15,25,35.70
2009,07,29,15,26,35.70
2009,07,29,15,27,35.60
2009,07,29,15,28,35.70
2009,07,29,15,29,35.70
2009,07,29,15,30,35.70
2009,07,29,15,31,35.70
2009,07,29,15,32,35.50
2009,07,29,15,33,35.50
2009,07,29,15,34,35.40
2009,07,29,15,35,35.30
2009,07,29,15,36,35.10
2009,07,29,15,37,35.00
2009,07,29,15,38,34.90
2009,07,29,15,39,34.70
2009,07,29,15,40,34.70
2009,07,29,15,41,34.60
2009,07,29,15,42,34.50
2009,07,29,15,43,34.40
2009,07,29,15,44,34.50
2009,07,29,15,45,34.40
2009,07,29,15,46,34.30
2009,07,29,15,47,34.20
2009,07,29,15,48,34.10
2009,07,29,15,49,34.00
2009,07,29,15,50,33.70
2009,07,29,15,51,33.50
2009,07,29,15,52,33.20
2009,07,29,15,53,33.00
2009,07,29,15,54,32.90
2009,07,29,15,55,32.90
2009,07,29,15,56,33.10
2009,07,29,15,57,33.20
2009,07,29,15,58,33.30
2009,07,29,15,59,33.50
2009,07,29,16,00,33.60
2009,07,29,16,01,33.70
2009,07,29,16,02,33.90
2009,07,29,16,03,34.10
2009,07,29,16,04,34.10
2009,07,29,16,05,34.20
2009,07,29,16,06,34.30
2009,07,29,16,07,34.30
2009,07,29,16,08,34.30
2009,07,29,16,09,34.30
2009,07,29,16,10,34.20
2009,07,29,16,11,34.20
2009,07,29,16,12,34.20
2009,07,29,16,13,34.20
2009,07,29,16,14,34.30
2009,07,29,16,15,34.40
2009,07,29,16,16,34.50
2009,07,29,16,17,34.60
2009,07,29,16,18,34.60
2009,07,29,16,19,34.60
2009,07,29,16,20,34.70
2009,07,29,16,21,34.70
2009,07,29,16,22,34.70
2009,07,29,16,23,34.70
2009,07,29,16,24,34.80
2009,07,29,16,25,34.90
2009,07,29,16,26,34.90
2009,07,29,16,27,35.00
2009,07,29,16,28,35.10
2009,07,29,16,29,35.10
2009,07,29,16,30,35.10
2009,07,29,16,31,35.10
2009,07,29,16,32,35.10
2009,07,29,16,33,35.10
2009,07,29,16,34,35.10
2009,07,29,16,35,35.20
2009,07,29,16,36,35.20
2009,07,29,16,37,35.20
2009,07,29,16,38,35.20
2009,07,29,16,39,35.20
2009,07,29,16,40,35.30
2009,07,29,16,41,35.20
2009,07,29,16,42,35.20
2009,07,29,16,43,35.30
2009,07,29,16,44,35.40
2009,07,29,16,45,35.50
2009,07,29,16,46,35.60
2009,07,29,16,47,35.70
2009,07,29,16,48,35.90
2009,07,29,16,49,36.00
2009,07,29,16,50,35.90
2009,07,29,16,51,35.50
2009,07,29,16,52,35.30
2009,07,29,16,53,35.00
2009,07,29,16,54,34.90
2009,07,29,16,55,34.70
2009,07,29,16,56,34.60
2009,07,29,16,57,34.60
2009,07,29,16,58,34.40
2009,07,29,16,59,34.50
2009,07,29,17,00,34.70
2009,07,29,17,01,34.80
2009,07,29,17,02,34.80
2009,07,29,17,03,34.90
2009,07,29,17,04,35.10
2009,07,29,17,05,35.20
2009,07,29,17,06,35.30
2009,07,29,17,07,35.50
2009,07,29,17,08,35.30
2009,07,29,17,09,35.20
2009,07,29,17,10,34.60
2009,07,29,17,11,34.00
2009,07,29,17,12,33.30
2009,07,29,17,13,32.80
2009,07,29,17,14,32.40
2009,07,29,17,15,32.00
2009,07,29,17,16,31.80
2009,07,29,17,17,31.50
2009,07,29,17,18,31.30
2009,07,29,17,19,31.10